Terminal Aerodrome Forecast
Issued by NWS Mobile, AL

Home | Current Version | Previous Version | Text Only | Print | Product List | Glossary On
Versions: 1 2 3 4 5 6 7 8 9 10 11 12 13 14 15 16 17 18 19 20 21 22 23 24 25 26 27 28
000
FTUS44 KMOB 272200 AAB
TAFPNS
TAF AMD
KPNS 272217Z 2722/2818 05007KT 4SM -RA BR VCTS BKN008CB BKN021
      OVC035
     FM282600 12008KT 6SM -SHRA OVC020=

USA.gov is the U.S. government's official web portal to all federal, state and local government web resources and services.